Time,TemperatureF,DewpointF,PressureIn,WindDirection,WindDirectionDegrees,WindSpeedMPH,WindSpeedGustMPH,Humidity,HourlyPrecipIn,Conditions,Clouds,dailyrainin,SolarRadiationWatts/m^2,SoftwareType,DateUTC
2013-01-29 00:00:00,48.3,40.7,30.32,North,9,1.0,1.0,75,0.00,,,0.00,0,Wunderground v.1.15,2013-01-29 08:00:00,
2013-01-29 00:05:00,48.2,41.0,30.32,North,9,0.0,1.0,76,0.00,,,0.00,0,Wunderground v.1.15,2013-01-29 08:05:00,
2013-01-29 00:15:00,48.3,41.1,30.33,North,10,0.0,0.0,76,0.00,,,0.00,0,Wunderground v.1.15,2013-01-29 08:15:00,
2013-01-29 00:24:00,48.3,41.4,30.33,North,9,0.0,0.0,77,0.00,,,0.00,0,Wunderground v.1.15,2013-01-29 08:24:00,
2013-01-29 00:30:00,48.3,41.8,30.33,NNE,12,0.0,0.0,78,0.00,,,0.00,0,Wunderground v.1.15,2013-01-29 08:30:00,
2013-01-29 00:39:00,47.8,41.3,30.33,North,6,0.0,0.0,78,0.00,,,0.00,0,Wunderground v.1.15,2013-01-29 08:39:00,
2013-01-29 00:45:00,47.7,41.2,30.33,North,7,0.0,2.0,78,0.00,,,0.00,0,Wunderground v.1.15,2013-01-29 08:45:00,
2013-01-29 00:54:00,47.5,41.3,30.33,North,1,1.0,1.0,79,0.00,,,0.00,0,Wunderground v.1.15,2013-01-29 08:54:00,
2013-01-29 01:00:00,47.4,40.9,30.33,North,359,1.0,2.0,78,0.00,,,0.00,0,Wunderground v.1.15,2013-01-29 09:00:00,
2013-01-29 01:09:00,47.4,40.9,30.33,North,1,3.0,5.0,78,0.00,,,0.00,0,Wunderground v.1.15,2013-01-29 09:09:00,
2013-01-29 01:15:00,47.5,40.6,30.32,North,10,3.0,5.0,77,0.00,,,0.00,0,Wunderground v.1.15,2013-01-29 09:15:00,
2013-01-29 01:20:00,47.6,40.7,30.33,NNE,18,3.0,3.0,77,0.00,,,0.00,0,Wunderground v.1.15,2013-01-29 09:20:00,
2013-01-29 01:30:00,47.5,40.6,30.33,NNE,19,1.0,1.0,77,0.00,,,0.00,0,Wunderground v.1.15,2013-01-29 09:30:00,
2013-01-29 01:35:00,47.5,40.6,30.33,NNE,16,0.0,2.0,77,0.00,,,0.00,0,Wunderground v.1.15,2013-01-29 09:35:00,
2013-01-29 01:44:00,47.4,40.6,30.33,North,3,3.0,3.0,77,0.00,,,0.00,0,Wunderground v.1.15,2013-01-29 09:44:00,
2013-01-29 01:50:00,47.5,40.6,30.33,North,8,3.0,3.0,77,0.00,,,0.00,0,Wunderground v.1.15,2013-01-29 09:50:00,
2013-01-29 01:59:00,47.7,40.8,30.33,North,353,4.0,4.0,77,0.00,,,0.00,0,Wunderground v.1.15,2013-01-29 09:59:00,
2013-01-29 02:05:00,47.6,40.7,30.34,North,355,3.0,4.0,77,0.00,,,0.00,0,Wunderground v.1.15,2013-01-29 10:05:00,
2013-01-29 02:10:00,47.7,40.5,30.34,NNE,14,4.0,5.0,76,0.00,,,0.00,0,Wunderground v.1.15,2013-01-29 10:10:00,
2013-01-29 02:19:00,47.7,40.5,30.34,North,11,2.0,2.0,76,0.00,,,0.00,0,Wunderground v.1.15,2013-01-29 10:19:00,
2013-01-29 02:25:00,47.4,40.2,30.34,NNE,12,1.0,3.0,76,0.00,,,0.00,0,Wunderground v.1.15,2013-01-29 10:25:00,
2013-01-29 02:34:00,47.1,40.3,30.34,North,11,3.0,4.0,77,0.00,,,0.00,0,Wunderground v.1.15,2013-01-29 10:34:00,
2013-01-29 02:44:00,46.9,40.1,30.34,North,8,3.0,4.0,77,0.00,,,0.00,0,Wunderground v.1.15,2013-01-29 10:44:00,
2013-01-29 02:49:00,46.9,40.4,30.34,North,10,3.0,3.0,78,0.00,,,0.00,0,Wunderground v.1.15,2013-01-29 10:49:00,
2013-01-29 02:55:00,47.0,40.5,30.34,North,8,2.0,3.0,78,0.00,,,0.00,0,Wunderground v.1.15,2013-01-29 10:55:00,
2013-01-29 03:04:00,47.8,41.3,30.34,North,8,0.0,2.0,78,0.00,,,0.00,0,Wunderground v.1.15,2013-01-29 11:04:00,
2013-01-29 03:10:00,48.0,41.8,30.33,North,9,1.0,1.0,79,0.00,,,0.00,0,Wunderground v.1.15,2013-01-29 11:10:00,
2013-01-29 03:19:00,47.9,41.4,30.34,North,10,0.0,1.0,78,0.00,,,0.00,0,Wunderground v.1.15,2013-01-29 11:19:00,
2013-01-29 03:25:00,47.8,41.3,30.35,North,357,1.0,6.0,78,0.00,,,0.00,0,Wunderground v.1.15,2013-01-29 11:25:00,
2013-01-29 03:34:00,47.6,41.1,30.34,NNW,345,3.0,3.0,78,0.00,,,0.00,0,Wunderground v.1.15,2013-01-29 11:34:00,
2013-01-29 03:39:00,47.5,41.3,30.35,NNW,333,3.0,7.0,79,0.00,,,0.00,0,Wunderground v.1.15,2013-01-29 11:39:00,
2013-01-29 03:45:00,47.5,41.3,30.34,NW,323,4.0,7.0,79,0.00,,,0.00,0,Wunderground v.1.15,2013-01-29 11:45:00,
2013-01-29 03:55:00,47.4,41.5,30.34,NNW,329,4.0,5.0,80,0.00,,,0.00,0,Wunderground v.1.15,2013-01-29 11:55:00,
2013-01-29 04:04:00,47.4,41.5,30.34,NW,322,3.0,4.0,80,0.00,,,0.00,0,Wunderground v.1.15,2013-01-29 12:04:00,
2013-01-29 04:09:00,47.4,41.5,30.34,NW,324,1.0,3.0,80,0.00,,,0.00,0,Wunderground v.1.15,2013-01-29 12:09:00,
2013-01-29 04:14:00,47.3,41.4,30.34,NW,324,1.0,3.0,80,0.00,,,0.00,0,Wunderground v.1.15,2013-01-29 12:14:00,
2013-01-29 04:20:00,47.3,41.4,30.34,NW,323,1.0,3.0,80,0.00,,,0.00,0,Wunderground v.1.15,2013-01-29 12:20:00,
2013-01-29 04:29:00,47.1,41.2,30.34,NW,325,1.0,1.0,80,0.00,,,0.00,0,Wunderground v.1.15,2013-01-29 12:29:00,
2013-01-29 04:35:00,47.1,41.2,30.34,NW,324,0.0,1.0,80,0.00,,,0.00,0,Wunderground v.1.15,2013-01-29 12:35:00,
2013-01-29 04:44:00,46.7,40.9,30.35,NW,322,0.0,0.0,80,0.00,,,0.00,0,Wunderground v.1.15,2013-01-29 12:44:00,
2013-01-29 04:50:00,46.4,40.9,30.35,NW,323,0.0,0.0,81,0.00,,,0.00,0,Wunderground v.1.15,2013-01-29 12:50:00,
2013-01-29 04:59:00,45.7,40.5,30.36,NW,325,0.0,0.0,82,0.00,,,0.00,0,Wunderground v.1.15,2013-01-29 12:59:00,
2013-01-29 05:05:00,45.6,40.7,30.36,NW,324,0.0,0.0,83,0.00,,,0.00,0,Wunderground v.1.15,2013-01-29 13:05:00,
2013-01-29 05:14:00,45.4,40.8,30.36,NW,323,0.0,0.0,84,0.00,,,0.00,0,Wunderground v.1.15,2013-01-29 13:14:00,
2013-01-29 05:20:00,45.1,40.6,30.36,NW,323,0.0,0.0,84,0.00,,,0.00,0,Wunderground v.1.15,2013-01-29 13:20:00,
2013-01-29 05:29:00,44.7,39.9,30.36,NW,323,0.0,0.0,83,0.00,,,0.00,0,Wunderground v.1.15,2013-01-29 13:29:00,
2013-01-29 05:35:00,44.5,40.0,30.35,NW,324,0.0,0.0,84,0.00,,,0.00,0,Wunderground v.1.15,2013-01-29 13:35:00,
2013-01-29 05:44:00,44.3,40.1,30.35,NW,324,0.0,0.0,85,0.00,,,0.00,0,Wunderground v.1.15,2013-01-29 13:44:00,
2013-01-29 05:50:00,44.5,40.6,30.35,NW,323,0.0,0.0,86,0.00,,,0.00,0,Wunderground v.1.15,2013-01-29 13:50:00,
2013-01-29 05:59:00,45.0,40.8,30.36,NW,324,0.0,0.0,85,0.00,,,0.00,0,Wunderground v.1.15,2013-01-29 13:59:00,
2013-01-29 06:05:00,44.9,40.7,30.36,NW,323,0.0,0.0,85,0.00,,,0.00,0,Wunderground v.1.15,2013-01-29 14:05:00,
2013-01-29 06:14:00,44.8,40.3,30.36,NW,324,0.0,0.0,84,0.00,,,0.00,0,Wunderground v.1.15,2013-01-29 14:14:00,
2013-01-29 06:20:00,44.9,40.4,30.37,NW,324,0.0,0.0,84,0.00,,,0.00,0,Wunderground v.1.15,2013-01-29 14:20:00,
2013-01-29 06:29:00,44.7,39.9,30.37,NW,324,0.0,0.0,83,0.00,,,0.00,0,Wunderground v.1.15,2013-01-29 14:29:00,
2013-01-29 06:35:00,44.6,39.8,30.37,NW,324,0.0,0.0,83,0.00,,,0.00,0,Wunderground v.1.15,2013-01-29 14:35:00,
2013-01-29 06:44:00,44.1,39.3,30.38,NW,324,0.0,0.0,83,0.00,,,0.00,0,Wunderground v.1.15,2013-01-29 14:44:00,
2013-01-29 06:50:00,43.9,39.4,30.37,NW,322,0.0,0.0,84,0.00,,,0.00,0,Wunderground v.1.15,2013-01-29 14:50:00,
2013-01-29 06:59:00,43.7,39.2,30.37,NW,324,0.0,0.0,84,0.00,,,0.00,0,Wunderground v.1.15,2013-01-29 14:59:00,
2013-01-29 07:05:00,43.7,39.5,30.37,NW,322,0.0,0.0,85,0.00,,,0.00,0,Wunderground v.1.15,2013-01-29 15:05:00,
2013-01-29 07:14:00,43.7,39.5,30.38,NW,322,0.0,0.0,85,0.00,,,0.00,0,Wunderground v.1.15,2013-01-29 15:14:00,
2013-01-29 07:19:00,43.6,39.4,30.38,NW,324,0.0,0.0,85,0.00,,,0.00,0,Wunderground v.1.15,2013-01-29 15:19:00,
2013-01-29 07:25:00,43.7,39.8,30.38,NW,324,0.0,0.0,86,0.00,,,0.00,7,Wunderground v.1.15,2013-01-29 15:25:00,
2013-01-29 07:34:00,44.1,40.5,30.38,SSW,213,0.0,0.0,87,0.00,,,0.00,18,Wunderground v.1.15,2013-01-29 15:34:00,
2013-01-29 07:44:00,44.5,40.9,30.39,SSW,213,0.0,0.0,87,0.00,,,0.00,28,Wunderground v.1.15,2013-01-29 15:44:00,
2013-01-29 07:50:00,44.6,41.0,30.38,NW,324,0.0,0.0,87,0.00,,,0.00,35,Wunderground v.1.15,2013-01-29 15:50:00,
2013-01-29 07:59:00,44.6,41.0,30.39,NNW,329,0.0,0.0,87,0.00,,,0.00,47,Wunderground v.1.15,2013-01-29 15:59:00,
2013-01-29 08:04:00,44.6,41.0,30.38,NW,323,0.0,0.0,87,0.00,,,0.00,53,Wunderground v.1.15,2013-01-29 16:04:00,
2013-01-29 08:10:00,44.8,41.2,30.39,SSW,213,0.0,0.0,87,0.00,,,0.00,60,Wunderground v.1.15,2013-01-29 16:10:00,
2013-01-29 08:19:00,45.2,41.6,30.39,NNW,328,0.0,0.0,87,0.00,,,0.00,76,Wunderground v.1.15,2013-01-29 16:19:00,
2013-01-29 08:25:00,45.4,41.5,30.39,NNW,331,0.0,0.0,86,0.00,,,0.00,86,Wunderground v.1.15,2013-01-29 16:25:00,
2013-01-29 08:35:00,45.6,41.4,30.39,NW,322,0.0,0.0,85,0.00,,,0.00,113,Wunderground v.1.15,2013-01-29 16:35:00,
2013-01-29 08:44:00,46.3,42.3,30.38,NW,326,0.0,0.0,86,0.00,,,0.00,160,Wunderground v.1.15,2013-01-29 16:44:00,
2013-01-29 08:50:00,47.0,42.7,30.38,NW,326,0.0,0.0,85,0.00,,,0.00,178,Wunderground v.1.15,2013-01-29 16:50:00,
2013-01-29 08:59:00,47.9,43.0,30.38,NW,322,0.0,0.0,83,0.00,,,0.00,269,Wunderground v.1.15,2013-01-29 16:59:00,
2013-01-29 09:05:00,48.5,43.3,30.38,NNW,327,0.0,0.0,82,0.00,,,0.00,302,Wunderground v.1.15,2013-01-29 17:05:00,
2013-01-29 09:15:00,49.5,43.3,30.38,NW,318,0.0,0.0,79,0.00,,,0.00,285,Wunderground v.1.15,2013-01-29 17:15:00,
2013-01-29 09:24:00,50.3,43.4,30.38,NW,321,0.0,0.0,77,0.00,,,0.00,258,Wunderground v.1.15,2013-01-29 17:24:00,
2013-01-29 09:30:00,50.0,42.7,30.38,NW,318,0.0,1.0,76,0.00,,,0.00,258,Wunderground v.1.15,2013-01-29 17:30:00,
2013-01-29 09:39:00,51.0,43.7,30.38,North,353,1.0,1.0,76,0.00,,,0.00,352,Wunderground v.1.15,2013-01-29 17:39:00,
2013-01-29 09:45:00,52.7,45.0,30.38,SSW,213,2.0,4.0,75,0.00,,,0.00,352,Wunderground v.1.15,2013-01-29 17:45:00,
2013-01-29 09:54:00,54.5,44.9,30.39,NNE,24,5.0,6.0,70,0.00,,,0.00,309,Wunderground v.1.15,2013-01-29 17:54:00,
2013-01-29 10:00:00,55.0,44.2,30.39,North,352,5.0,10.0,67,0.00,,,0.00,376,Wunderground v.1.15,2013-01-29 18:00:00,
2013-01-29 10:09:00,55.2,43.2,30.39,North,6,5.0,5.0,64,0.00,,,0.00,394,Wunderground v.1.15,2013-01-29 18:09:00,
2013-01-29 10:15:00,55.4,43.0,30.39,North,5,4.0,7.0,63,0.00,,,0.00,397,Wunderground v.1.15,2013-01-29 18:15:00,
2013-01-29 10:24:00,56.4,42.7,30.39,NNE,14,6.0,6.0,60,0.00,,,0.00,397,Wunderground v.1.15,2013-01-29 18:24:00,
2013-01-29 10:29:00,56.1,42.4,30.39,North,10,7.0,7.0,60,0.00,,,0.00,345,Wunderground v.1.15,2013-01-29 18:29:00,
2013-01-29 10:35:00,55.8,42.1,30.39,SSW,213,7.0,7.0,60,0.00,,,0.00,378,Wunderground v.1.15,2013-01-29 18:35:00,
2013-01-29 10:45:00,55.8,43.0,30.38,North,359,6.0,10.0,62,0.00,,,0.00,415,Wunderground v.1.15,2013-01-29 18:45:00,
2013-01-29 10:55:00,56.9,43.2,30.38,NNE,14,5.0,8.0,60,0.00,,,0.00,504,Wunderground v.1.15,2013-01-29 18:55:00,
2013-01-29 11:04:00,57.7,43.0,30.38,NNE,24,5.0,5.0,58,0.00,,,0.00,547,Wunderground v.1.15,2013-01-29 19:04:00,
2013-01-29 11:09:00,58.3,43.1,30.38,SSW,213,5.0,6.0,57,0.00,,,0.00,478,Wunderground v.1.15,2013-01-29 19:09:00,
2013-01-29 11:15:00,58.1,42.5,30.38,NNW,347,6.0,7.0,56,0.00,,,0.00,455,Wunderground v.1.15,2013-01-29 19:15:00,
2013-01-29 11:25:00,58.2,43.0,30.38,North,359,5.0,6.0,57,0.00,,,0.00,506,Wunderground v.1.15,2013-01-29 19:25:00,
2013-01-29 11:34:00,58.6,42.9,30.38,NNE,28,4.0,4.0,56,0.00,,,0.00,485,Wunderground v.1.15,2013-01-29 19:34:00,
2013-01-29 11:44:00,58.7,43.0,30.38,NE,42,6.0,6.0,56,0.00,,,0.00,541,Wunderground v.1.15,2013-01-29 19:44:00,
2013-01-29 11:50:00,58.9,43.2,30.38,NNE,24,5.0,5.0,56,0.00,,,0.00,475,Wunderground v.1.15,2013-01-29 19:50:00,
2013-01-29 11:59:00,58.6,42.5,30.37,North,4,5.0,5.0,55,0.00,,,0.00,480,Wunderground v.1.15,2013-01-29 19:59:00,
2013-01-29 12:05:00,59.0,42.8,30.36,North,10,4.0,5.0,55,0.00,,,0.00,606,Wunderground v.1.15,2013-01-29 20:05:00,
2013-01-29 12:14:00,60.1,42.9,30.36,North,5,4.0,6.0,53,0.00,,,0.00,490,Wunderground v.1.15,2013-01-29 20:14:00,
2013-01-29 12:20:00,60.4,42.7,30.35,NNE,24,4.0,4.0,52,0.00,,,0.00,582,Wunderground v.1.15,2013-01-29 20:20:00,
2013-01-29 12:30:00,59.8,42.6,30.34,North,5,6.0,6.0,53,0.00,,,0.00,608,Wunderground v.1.15,2013-01-29 20:30:00,
2013-01-29 12:40:00,60.8,43.1,30.34,NNE,16,5.0,9.0,52,0.00,,,0.00,621,Wunderground v.1.15,2013-01-29 20:40:00,
2013-01-29 12:49:00,61.5,43.2,30.33,NNE,31,4.0,4.0,51,0.00,,,0.00,599,Wunderground v.1.15,2013-01-29 20:49:00,
2013-01-29 12:55:00,62.2,43.3,30.33,SSW,213,2.0,4.0,50,0.00,,,0.00,557,Wunderground v.1.15,2013-01-29 20:55:00,
2013-01-29 13:05:00,58.7,43.5,30.33,SW,226,2.0,4.0,57,0.00,,,0.00,615,Wunderground v.1.15,2013-01-29 21:05:00,
2013-01-29 13:14:00,55.2,42.8,30.33,WSW,253,3.0,3.0,63,0.00,,,0.00,598,Wunderground v.1.15,2013-01-29 21:14:00,
2013-01-29 13:19:00,55.2,44.0,30.33,WSW,239,3.0,3.0,66,0.00,,,0.00,575,Wunderground v.1.15,2013-01-29 21:19:00,
2013-01-29 13:25:00,54.9,44.1,30.32,WSW,241,3.0,3.0,67,0.00,,,0.00,566,Wunderground v.1.15,2013-01-29 21:25:00,
2013-01-29 13:34:00,54.0,43.7,30.32,WSW,252,3.0,5.0,68,0.00,,,0.00,552,Wunderground v.1.15,2013-01-29 21:34:00,
2013-01-29 13:40:00,53.8,43.9,30.31,West,267,4.0,4.0,69,0.00,,,0.00,568,Wunderground v.1.15,2013-01-29 21:40:00,
2013-01-29 13:50:00,54.4,43.3,30.31,WSW,252,5.0,5.0,66,0.00,,,0.00,563,Wunderground v.1.15,2013-01-29 21:50:00,
2013-01-29 13:59:00,55.0,43.0,30.31,WSW,248,5.0,5.0,64,0.00,,,0.00,471,Wunderground v.1.15,2013-01-29 21:59:00,
2013-01-29 14:04:00,55.1,43.1,30.31,WSW,257,4.0,5.0,64,0.00,,,0.00,485,Wunderground v.1.15,2013-01-29 22:04:00,
2013-01-29 14:10:00,55.0,43.0,30.30,SSW,213,5.0,5.0,64,0.00,,,0.00,496,Wunderground v.1.15,2013-01-29 22:10:00,
2013-01-29 14:20:00,54.7,43.2,30.30,WNW,289,7.0,8.0,65,0.00,,,0.00,473,Wunderground v.1.15,2013-01-29 22:20:00,
2013-01-29 14:29:00,54.9,43.4,30.30,West,273,8.0,9.0,65,0.00,,,0.00,468,Wunderground v.1.15,2013-01-29 22:29:00,
2013-01-29 14:35:00,54.9,43.7,30.30,West,276,8.0,9.0,66,0.00,,,0.00,457,Wunderground v.1.15,2013-01-29 22:35:00,
2013-01-29 14:44:00,55.5,44.3,30.30,WSW,244,5.0,6.0,66,0.00,,,0.00,399,Wunderground v.1.15,2013-01-29 22:44:00,
2013-01-29 14:50:00,55.6,45.6,30.30,West,259,4.0,5.0,69,0.00,,,0.00,417,Wunderground v.1.15,2013-01-29 22:50:00,
2013-01-29 15:00:00,55.4,45.4,30.30,WSW,246,4.0,5.0,69,0.00,,,0.00,425,Wunderground v.1.15,2013-01-29 23:00:00,
2013-01-29 15:09:00,55.4,45.0,30.30,WSW,253,5.0,8.0,68,0.00,,,0.00,415,Wunderground v.1.15,2013-01-29 23:09:00,
2013-01-29 15:15:00,55.2,45.6,30.30,WSW,243,6.0,8.0,70,0.00,,,0.00,418,Wunderground v.1.15,2013-01-29 23:15:00,
2013-01-29 15:24:00,55.5,45.9,30.29,West,262,5.0,7.0,70,0.00,,,0.00,415,Wunderground v.1.15,2013-01-29 23:24:00,
2013-01-29 15:30:00,55.6,45.6,30.29,SSW,213,6.0,6.0,69,0.00,,,0.00,406,Wunderground v.1.15,2013-01-29 23:30:00,
2013-01-29 15:39:00,56.3,45.5,30.29,WSW,247,4.0,4.0,67,0.00,,,0.00,360,Wunderground v.1.15,2013-01-29 23:39:00,
2013-01-29 15:45:00,56.8,45.6,30.29,WSW,237,3.0,4.0,66,0.00,,,0.00,339,Wunderground v.1.15,2013-01-29 23:45:00,
2013-01-29 15:54:00,57.2,45.9,30.28,SW,234,3.0,3.0,66,0.00,,,0.00,306,Wunderground v.1.15,2013-01-29 23:54:00,
2013-01-29 16:00:00,56.9,47.2,30.29,SW,231,3.0,5.0,70,0.00,,,0.00,283,Wunderground v.1.15,2013-01-30 00:00:00,
2013-01-29 16:10:00,55.9,48.1,30.29,SW,222,3.0,3.0,75,0.00,,,0.00,260,Wunderground v.1.15,2013-01-30 00:10:00,
2013-01-29 16:19:00,55.9,48.1,30.28,SSW,213,2.0,2.0,75,0.00,,,0.00,227,Wunderground v.1.15,2013-01-30 00:19:00,
2013-01-29 16:25:00,55.7,47.5,30.28,WSW,238,2.0,3.0,74,0.00,,,0.00,216,Wunderground v.1.15,2013-01-30 00:25:00,
2013-01-29 16:35:00,54.9,47.8,30.29,SW,218,2.0,4.0,77,0.00,,,0.00,188,Wunderground v.1.15,2013-01-30 00:35:00,
2013-01-29 16:44:00,54.6,47.9,30.28,South,184,4.0,4.0,78,0.00,,,0.00,139,Wunderground v.1.15,2013-01-30 00:44:00,
2013-01-29 16:50:00,54.3,47.6,30.29,South,184,3.0,3.0,78,0.00,,,0.00,109,Wunderground v.1.15,2013-01-30 00:50:00,
2013-01-29 17:00:00,54.1,48.1,30.28,South,178,2.0,4.0,80,0.00,,,0.00,76,Wunderground v.1.15,2013-01-30 01:00:00,
2013-01-29 17:05:00,53.7,48.3,30.29,South,177,3.0,4.0,82,0.00,,,0.00,46,Wunderground v.1.15,2013-01-30 01:05:00,
2013-01-29 17:14:00,53.6,47.9,30.28,South,186,2.0,3.0,81,0.00,,,0.00,40,Wunderground v.1.15,2013-01-30 01:14:00,
2013-01-29 17:24:00,54.2,47.5,30.29,South,181,0.0,0.0,78,0.00,,,0.00,12,Wunderground v.1.15,2013-01-30 01:24:00,
2013-01-29 17:30:00,54.3,46.9,30.28,South,178,0.0,0.0,76,0.00,,,0.00,5,Wunderground v.1.15,2013-01-30 01:30:00,
2013-01-29 17:39:00,54.4,47.0,30.29,South,178,0.0,0.0,76,0.00,,,0.00,5,Wunderground v.1.15,2013-01-30 01:39:00,
2013-01-29 17:45:00,54.3,46.5,30.29,South,179,0.0,0.0,75,0.00,,,0.00,0,Wunderground v.1.15,2013-01-30 01:45:00,
2013-01-29 17:54:00,54.2,46.1,30.29,South,180,0.0,0.0,74,0.00,,,0.00,0,Wunderground v.1.15,2013-01-30 01:54:00,
2013-01-29 18:00:00,54.1,46.0,30.29,South,176,0.0,0.0,74,0.00,,,0.00,0,Wunderground v.1.15,2013-01-30 02:00:00,
2013-01-29 18:09:00,54.1,46.0,30.29,South,181,0.0,1.0,74,0.00,,,0.00,0,Wunderground v.1.15,2013-01-30 02:09:00,
2013-01-29 18:15:00,54.2,46.1,30.29,NW,324,1.0,3.0,74,0.00,,,0.00,0,Wunderground v.1.15,2013-01-30 02:15:00,
2013-01-29 18:25:00,54.1,46.3,30.30,NNW,343,4.0,4.0,75,0.00,,,0.00,0,Wunderground v.1.15,2013-01-30 02:25:00,
2013-01-29 18:34:00,54.2,46.1,30.30,NNW,334,3.0,3.0,74,0.00,,,0.00,0,Wunderground v.1.15,2013-01-30 02:34:00,
2013-01-29 18:40:00,54.3,45.8,30.31,NNW,337,3.0,3.0,73,0.00,,,0.00,0,Wunderground v.1.15,2013-01-30 02:40:00,
2013-01-29 18:49:00,54.3,45.8,30.31,NNW,333,3.0,4.0,73,0.00,,,0.00,0,Wunderground v.1.15,2013-01-30 02:49:00,
2013-01-29 18:55:00,54.2,45.7,30.31,NNW,339,3.0,4.0,73,0.00,,,0.00,0,Wunderground v.1.15,2013-01-30 02:55:00,
2013-01-29 19:00:00,54.2,45.7,30.31,NNW,334,3.0,3.0,73,0.00,,,0.00,0,Wunderground v.1.15,2013-01-30 03:00:00,
2013-01-29 19:10:00,53.9,45.4,30.31,NNW,338,1.0,1.0,73,0.00,,,0.00,0,Wunderground v.1.15,2013-01-30 03:10:00,
2013-01-29 19:19:00,53.6,45.2,30.31,NNW,337,0.0,0.0,73,0.00,,,0.00,0,Wunderground v.1.15,2013-01-30 03:19:00,
2013-01-29 19:25:00,53.3,45.2,30.31,NNW,333,0.0,0.0,74,0.00,,,0.00,0,Wunderground v.1.15,2013-01-30 03:25:00,
2013-01-29 19:34:00,52.9,44.8,30.31,NNW,338,0.0,2.0,74,0.00,,,0.00,0,Wunderground v.1.15,2013-01-30 03:34:00,
2013-01-29 19:39:00,52.7,45.7,30.31,East,87,2.0,3.0,77,0.00,,,0.00,0,Wunderground v.1.15,2013-01-30 03:39:00,
2013-01-29 19:45:00,52.3,45.6,30.31,East,90,2.0,3.0,78,0.00,,,0.00,0,Wunderground v.1.15,2013-01-30 03:45:00,
2013-01-29 19:55:00,52.4,46.4,30.32,East,85,0.0,1.0,80,0.00,,,0.00,0,Wunderground v.1.15,2013-01-30 03:55:00,
2013-01-29 20:05:00,52.2,45.9,30.31,East,89,0.0,0.0,79,0.00,,,0.00,0,Wunderground v.1.15,2013-01-30 04:05:00,
2013-01-29 20:14:00,51.8,45.8,30.32,East,89,0.0,0.0,80,0.00,,,0.00,0,Wunderground v.1.15,2013-01-30 04:14:00,
2013-01-29 20:19:00,51.5,45.5,30.32,East,89,0.0,0.0,80,0.00,,,0.00,0,Wunderground v.1.15,2013-01-30 04:19:00,
2013-01-29 20:25:00,51.3,45.3,30.32,East,87,0.0,0.0,80,0.00,,,0.00,0,Wunderground v.1.15,2013-01-30 04:25:00,
2013-01-29 20:35:00,51.1,45.5,30.32,East,91,0.0,0.0,81,0.00,,,0.00,0,Wunderground v.1.15,2013-01-30 04:35:00,
2013-01-29 20:44:00,50.8,45.2,30.32,East,86,0.0,0.0,81,0.00,,,0.00,0,Wunderground v.1.15,2013-01-30 04:44:00,
2013-01-29 20:50:00,50.6,45.0,30.32,East,87,0.0,0.0,81,0.00,,,0.00,0,Wunderground v.1.15,2013-01-30 04:50:00,
2013-01-29 20:59:00,50.6,45.3,30.32,NE,44,0.0,3.0,82,0.00,,,0.00,0,Wunderground v.1.15,2013-01-30 04:59:00,
2013-01-29 21:04:00,50.6,45.3,30.32,NNE,14,2.0,3.0,82,0.00,,,0.00,0,Wunderground v.1.15,2013-01-30 05:04:00,
2013-01-29 21:09:00,50.5,45.2,30.32,NNE,13,2.0,2.0,82,0.00,,,0.00,0,Wunderground v.1.15,2013-01-30 05:09:00,
2013-01-29 21:15:00,50.4,44.8,30.32,NNE,15,0.0,2.0,81,0.00,,,0.00,0,Wunderground v.1.15,2013-01-30 05:15:00,
2013-01-29 21:19:00,50.3,44.7,30.32,NNE,12,1.0,4.0,81,0.00,,,0.00,0,Wunderground v.1.15,2013-01-30 05:19:00,
2013-01-29 21:25:00,50.1,44.5,30.32,North,10,2.0,4.0,81,0.00,,,0.00,0,Wunderground v.1.15,2013-01-30 05:25:00,
2013-01-29 21:34:00,50.5,45.2,30.32,NNE,14,0.0,1.0,82,0.00,,,0.00,0,Wunderground v.1.15,2013-01-30 05:34:00,
2013-01-29 21:40:00,50.9,46.2,30.32,North,10,0.0,0.0,84,0.00,,,0.00,0,Wunderground v.1.15,2013-01-30 05:40:00,
2013-01-29 21:45:00,50.9,46.2,30.31,NNE,14,0.0,0.0,84,0.00,,,0.00,0,Wunderground v.1.15,2013-01-30 05:45:00,
2013-01-29 21:55:00,50.5,45.5,30.31,NNE,14,2.0,3.0,83,0.00,,,0.00,0,Wunderground v.1.15,2013-01-30 05:55:00,
2013-01-29 22:04:00,50.1,44.8,30.32,NNE,28,3.0,5.0,82,0.00,,,0.00,0,Wunderground v.1.15,2013-01-30 06:04:00,
2013-01-29 22:10:00,50.0,44.7,30.31,NNE,23,3.0,3.0,82,0.00,,,0.00,0,Wunderground v.1.15,2013-01-30 06:10:00,
2013-01-29 22:19:00,50.2,44.9,30.32,NNE,23,0.0,0.0,82,0.00,,,0.00,0,Wunderground v.1.15,2013-01-30 06:19:00,
2013-01-29 22:25:00,50.4,44.8,30.32,NNE,24,0.0,0.0,81,0.00,,,0.00,0,Wunderground v.1.15,2013-01-30 06:25:00,
2013-01-29 22:34:00,51.2,45.6,30.32,NNE,25,0.0,0.0,81,0.00,,,0.00,0,Wunderground v.1.15,2013-01-30 06:34:00,
2013-01-29 22:40:00,51.3,45.3,30.32,NNE,22,0.0,0.0,80,0.00,,,0.00,0,Wunderground v.1.15,2013-01-30 06:40:00,
2013-01-29 22:50:00,51.4,45.4,30.33,NNE,26,0.0,0.0,80,0.00,,,0.00,0,Wunderground v.1.15,2013-01-30 06:50:00,
2013-01-29 22:59:00,51.0,45.0,30.33,NNE,23,0.0,0.0,80,0.00,,,0.00,0,Wunderground v.1.15,2013-01-30 06:59:00,
2013-01-29 23:05:00,50.9,45.6,30.32,NNE,22,0.0,0.0,82,0.00,,,0.00,0,Wunderground v.1.15,2013-01-30 07:05:00,
2013-01-29 23:14:00,50.7,46.0,30.33,NNE,22,0.0,0.0,84,0.00,,,0.00,0,Wunderground v.1.15,2013-01-30 07:14:00,
2013-01-29 23:20:00,50.6,45.9,30.33,NNE,22,0.0,0.0,84,0.00,,,0.00,0,Wunderground v.1.15,2013-01-30 07:20:00,
2013-01-29 23:30:00,50.3,45.6,30.33,NNE,24,0.0,0.0,84,0.00,,,0.00,0,Wunderground v.1.15,2013-01-30 07:30:00,
2013-01-29 23:39:00,50.0,45.4,30.33,NNE,27,0.0,0.0,84,0.00,,,0.00,0,Wunderground v.1.15,2013-01-30 07:39:00,
2013-01-29 23:45:00,49.8,45.2,30.33,NNE,23,0.0,0.0,84,0.00,,,0.00,0,Wunderground v.1.15,2013-01-30 07:45:00,
2013-01-29 23:55:00,49.7,45.4,30.32,NNE,22,0.0,0.0,85,0.00,,,0.00,0,Wunderground v.1.15,2013-01-30 07:55:00,